Vorticity
3 4 5 5 6 7 8 8 7 5 5 5 5 4 4 4 4 3 4 5 6 7 6 5 3 3 4 4 2 3 6 8 5 9 9 2 3 5 3 6 8 4 3
6 4 3 2 3 4 4 4 6 7 7 6 5 5 4 4 3 3 3 3 3 4 7 8 6 5 4 4 5 3 2 5 7 4 10 11 3 4 5 4 6 6 4
5 5 4 4 5 5 5 5 4 3 3 4 6 7 7 7 6 5 5 5 4 4 4 6 8 6 5 5 4 5 4 2 5 7 5 12 8 4 4 5 4 6 7
14 13 13 11 11 10 10 9 8 6 5 6 5 3 3 6 7 7 6 5 6 6 5 4 5 7 7 6 5 5 4 5 3 3 6 6 12 8 5 5 6 4 6
7 7 7 6 4 4 4 5 7 9 11 12 11 9 10 7 2 3 6 7 7 6 6 6 5 5 6 7 7 6 5 5 5 4 2 5 6 9 8 6 5 7 5
6 5 6 7 8 8 7 7 6 7 7 8 9 10 11 11 9 8 5 2 4 7 6 5 5 5 5 5 6 7 6 6 5 4 5 3 3 6 7 7 6 5 6
3 4 5 5 6 6 6 6 6 6 5 5 4 7 11 10 9 12 10 10 6 2 4 8 6 5 5 4 5 5 6 6 6 5 4 5 6 1 5 6 7 6 6
2 3 3 2 2 3 4 5 6 8 8 9 9 6 6 8 10 9 9 10 9 10 7 4 4 8 6 4 4 4 4 5 6 6 6 5 5 6 4 2 6 7 6
2 1 1 2 2 3 4 3 3 3 3 3 4 5 7 5 6 10 12 10 9 11 10 11 7 1 2 5 7 7 5 5 5 4 5 5 6 5 5 6 3 2 7
2 2 3 3 3 2 3 3 4 3 2 2 3 4 7 7 7 5 6 12 10 9 9 15 11 10 8 4 3 5 2 1 1 4 5 5 5 5 5 6 5 7 3
4 4 4 4 3 3 2 3 2 2 2 2 3 6 9 8 6 6 4 3 6 14 11 8 11 15 12 10 6 2 6 2 -0 5 6 3 4 5 6 5 6 6 6
3 4 4 4 4 3 3 2 2 2 1 2 3 6 9 11 9 8 6 4 4 2 7 10 8 7 15 17 16 14 10 10 10 13 5 4 6 4 3 3 4 4 5
5 5 5 4 3 3 2 2 2 2 2 3 4 8 9 9 9 7 7 7 5 4 6 5 9 7 6 8 7 12 17 7 6 10 12 9 8 7 5 3 3 5 6
8 7 6 6 5 4 3 3 3 3 3 3 7 9 8 7 7 9 6 4 5 6 6 9 6 9 8 5 4 4 9 4 5 4 7 8 4 3 7 8 8 5 6
5 6 6 6 5 5 4 4 4 4 4 5 7 9 7 8 7 10 8 6 5 8 9 11 9 7 11 10 8 6 8 8 6 7 7 7 7 5 7 9 11 8 6
5 5 5 4 4 4 4 4 4 4 5 7 8 8 8 9 10 11 13 7 7 10 11 10 10 8 9 11 10 10 7 9 10 10 10 10 7 8 11 11 11 8 8
5 5 5 5 5 4 4 4 5 6 7 7 6 6 8 9 10 11 14 11 10 12 11 13 10 8 8 10 10 9 8 7 8 8 9 10 10 10 9 12 12 13 12
5 4 4 5 5 5 6 6 6 6 6 6 5 7 7 9 9 11 11 11 10 10 12 13 10 8 8 8 8 9 7 6 7 11 12 10 8 11 11 11 13 12 11
4 4 5 5 5 5 6 7 6 7 5 4 6 8 8 9 9 10 12 10 9 10 12 12 10 9 9 8 7 7 7 7 13 12 14 15 13 12 13 14 15 14 11
4 4 3 4 5 6 7 6 6 5 2 5 8 10 8 10 9 9 12 10 10 10 11 11 11 9 7 7 10 10 11 8 7 11 13 13 8 10 14 14 13 15 22
4 4 5 6 6 7 6 5 4 2 5 11 9 10 8 10 9 8 10 11 10 9 8 9 9 8 9 11 12 12 7 6 5 10 10 7 6 7 8 9 8 13 16
4 5 5 4 6 6 4 3 2 7 11 11 8 10 9 8 8 9 9 10 10 9 9 9 8 10 12 11 9 7 7 6 11 8 6 10 8 9 11 11 11 13 15
6 7 8 7 5 3 1 5 9 10 10 11 8 10 9 10 8 10 10 10 10 10 9 10 9 8 10 6 2 4 4 6 9 9 9 7 8 6 9 12 16 15 17
-1 -1 -0 1 3 4 7 9 8 9 8 9 8 8 10 6 10 9 9 8 8 8 9 7 8 8 7 7 6 4 4 8 8 6 3 5 8 5 9 17 17 14 18
9 8 9 9 9 8 9 8 8 8 7 6 8 7 7 8 7 8 8 8 7 7 7 7 7 6 7 5 5 5 8 7 7 3 10 4 5 7 12 21 16 21 17
8 7 9 8 7 7 7 6 6 6 7 5 6 7 7 6 6 6 6 7 8 8 7 7 6 6 6 6 5 11 4 4 2 9 8 7 5 7 14 15 17 16 21
Height
5867 5871 5874 5877 5879 5882 5885 5888 5891 5893 5894 5896 5897 5899 5901 5902 5903 5904 5905 5905 5905 5906 5905 5906 5906 5906 5906 5905 5905 5904 5904 5903 5902 5901 5899 5898 5897 5896 5894 5892 5890 5888 5887
5863 5867 5870 5873 5876 5879 5881 5885 5887 5890 5891 5892 5894 5896 5897 5899 5900 5901 5902 5903 5903 5903 5903 5903 5903 5904 5904 5904 5903 5903 5902 5902 5901 5900 5898 5897 5896 5895 5894 5893 5891 5889 5887
5859 5862 5866 5869 5872 5874 5877 5881 5883 5886 5888 5889 5891 5892 5894 5895 5897 5898 5899 5899 5900 5900 5900 5900 5900 5901 5901 5901 5901 5901 5900 5900 5899 5898 5897 5895 5895 5894 5892 5892 5891 5889 5887
5855 5859 5862 5865 5868 5870 5873 5876 5879 5882 5884 5886 5888 5889 5890 5892 5893 5894 5895 5895 5896 5897 5897 5897 5897 5897 5897 5898 5898 5898 5898 5897 5897 5896 5895 5894 5893 5892 5891 5890 5889 5888 5887
5851 5855 5858 5862 5865 5867 5869 5872 5875 5877 5879 5881 5883 5885 5886 5887 5888 5890 5891 5892 5892 5893 5893 5894 5894 5894 5894 5894 5895 5894 5894 5894 5894 5893 5893 5892 5891 5890 5889 5888 5887 5886 5885
5848 5851 5855 5858 5861 5863 5866 5868 5871 5873 5875 5876 5878 5879 5881 5883 5883 5884 5886 5887 5888 5888 5889 5889 5890 5890 5891 5891 5891 5891 5891 5890 5890 5890 5889 5889 5888 5887 5886 5885 5884 5883 5882
5844 5848 5852 5855 5857 5860 5863 5865 5867 5869 5870 5872 5874 5875 5876 5877 5878 5879 5880 5881 5882 5883 5884 5885 5886 5886 5886 5887 5887 5887 5887 5886 5886 5886 5885 5885 5884 5884 5883 5882 5881 5880 5879
5840 5844 5847 5850 5853 5856 5858 5861 5863 5865 5866 5868 5869 5871 5871 5872 5872 5874 5874 5875 5875 5877 5878 5879 5880 5881 5881 5882 5882 5882 5882 5882 5882 5882 5881 5881 5880 5879 5879 5878 5877 5877 5875
5834 5838 5841 5845 5848 5851 5854 5856 5858 5860 5862 5863 5865 5866 5866 5867 5868 5868 5868 5869 5869 5870 5871 5872 5874 5874 5875 5876 5876 5876 5877 5877 5877 5876 5876 5876 5875 5875 5874 5873 5873 5872 5871
5828 5832 5836 5840 5843 5846 5848 5851 5853 5854 5856 5857 5859 5860 5861 5862 5862 5862 5862 5862 5863 5863 5865 5866 5866 5867 5868 5868 5869 5870 5870 5870 5870 5870 5870 5870 5870 5869 5869 5868 5867 5867 5866
5823 5826 5830 5833 5836 5839 5842 5845 5847 5848 5850 5851 5853 5854 5855 5856 5856 5857 5857 5857 5857 5857 5857 5858 5859 5859 5859 5860 5861 5862 5862 5863 5863 5864 5864 5863 5863 5863 5862 5862 5862 5861 5860
5815 5819 5823 5826 5829 5832 5835 5837 5840 5842 5844 5845 5846 5846 5847 5848 5849 5849 5850 5851 5850 5850 5851 5851 5851 5851 5852 5851 5852 5853 5854 5855 5855 5855 5856 5856 5856 5856 5855 5855 5855 5854 5854
5807 5811 5815 5818 5822 5825 5828 5830 5833 5835 5837 5838 5838 5839 5839 5840 5841 5841 5842 5843 5844 5844 5844 5844 5843 5843 5843 5844 5845 5846 5847 5847 5847 5847 5848 5848 5848 5848 5847 5847 5847 5847 5846
5797 5801 5806 5810 5813 5816 5819 5822 5824 5827 5828 5829 5830 5830 5830 5831 5832 5833 5834 5835 5835 5836 5837 5837 5836 5835 5836 5837 5836 5838 5839 5839 5839 5840 5840 5840 5840 5839 5839 5839 5838 5837 5838
5788 5792 5796 5800 5804 5807 5810 5813 5816 5818 5819 5820 5821 5821 5822 5822 5822 5823 5824 5825 5826 5828 5828 5828 5828 5828 5829 5829 5828 5829 5830 5830 5831 5831 5831 5830 5830 5830 5829 5829 5829 5828 5828
5777 5781 5786 5790 5793 5797 5801 5804 5807 5808 5810 5811 5812 5812 5812 5812 5813 5813 5814 5815 5816 5817 5819 5819 5818 5819 5820 5821 5820 5821 5821 5821 5821 5821 5821 5820 5820 5820 5819 5818 5818 5818 5818
5765 5770 5775 5779 5783 5787 5790 5793 5796 5798 5800 5801 5802 5802 5802 5803 5803 5803 5804 5806 5807 5807 5808 5810 5810 5810 5811 5812 5812 5812 5812 5812 5812 5811 5811 5811 5810 5810 5809 5808 5808 5807 5807
5753 5759 5763 5768 5772 5776 5780 5783 5785 5787 5788 5789 5791 5792 5793 5793 5793 5794 5795 5796 5797 5797 5798 5801 5801 5802 5802 5803 5804 5804 5804 5803 5802 5801 5801 5800 5800 5799 5798 5798 5797 5796 5796
5742 5747 5752 5756 5760 5764 5768 5771 5773 5776 5777 5779 5780 5782 5783 5783 5784 5785 5786 5786 5787 5788 5788 5791 5793 5793 5794 5794 5794 5794 5794 5793 5792 5791 5791 5790 5789 5788 5787 5787 5786 5784 5784
5729 5735 5740 5744 5749 5752 5756 5759 5761 5764 5766 5767 5769 5771 5772 5773 5774 5774 5776 5777 5777 5778 5779 5781 5784 5785 5784 5785 5786 5785 5784 5783 5782 5782 5782 5780 5779 5777 5776 5775 5774 5772 5771
5716 5722 5727 5731 5736 5740 5743 5746 5749 5752 5754 5756 5757 5759 5761 5763 5764 5764 5766 5767 5768 5768 5769 5771 5773 5775 5776 5776 5776 5775 5775 5774 5774 5773 5772 5770 5769 5768 5766 5764 5762 5761 5760
5703 5708 5714 5718 5722 5727 5730 5733 5737 5739 5741 5743 5745 5747 5749 5751 5753 5754 5755 5756 5758 5759 5760 5762 5763 5765 5766 5766 5766 5766 5767 5766 5765 5764 5763 5761 5759 5757 5755 5753 5751 5749 5748
5688 5694 5700 5705 5709 5713 5716 5719 5722 5726 5728 5730 5733 5735 5737 5740 5741 5743 5744 5745 5747 5749 5750 5752 5753 5754 5755 5756 5756 5757 5757 5757 5756 5754 5753 5751 5749 5747 5744 5741 5739 5738 5737
5672 5679 5684 5689 5694 5698 5701 5705 5708 5712 5715 5717 5720 5723 5725 5727 5729 5731 5733 5735 5737 5739 5740 5741 5743 5744 5745 5745 5746 5747 5747 5747 5746 5745 5744 5742 5740 5737 5733 5730 5728 5727 5727
5653 5661 5667 5672 5677 5682 5686 5689 5693 5697 5700 5704 5706 5709 5712 5715 5718 5719 5721 5723 5725 5728 5729 5731 5732 5733 5734 5734 5735 5737 5737 5736 5735 5734 5734 5732 5729 5727 5723 5720 5719 5717 5716
5636 5642 5649 5653 5660 5665 5669 5673 5677 5682 5686 5689 5692 5695 5698 5702 5704 5707 5709 5711 5714 5717 5717 5719 5722 5723 5724 5725 5727 5728 5727 5724 5723 5724 5723 5722 5719 5716 5713 5710 5709 5708 5707